Find Kosmos-2144

NORAD ID: 21300 Int'l Des: 1991-033 Owner: UNKSR Country: SU operational
LEOCIRCULARPOLAR

当前视图

正在加载3D地球...

关于 Kosmos-2144

正在加载描述...

即将过境

Passes for default location (London). Set your location on the main map for personalized predictions.

高度历史

Loading altitude history...

两行轨道根数

1 21300U 91033B 26150.00748145 .00000045 00000-0 19481-3 0 9990
2 21300 82.5777 340.9869 0005544 144.5252 215.6209 12.62392430614169
Epoch: May 30, 2026 • Age: 12 hours

当前状态

高度 1420.0 km
速度 7.16 km/s
星下点 62.91°N, 74.88°E
发射日期 May 16, 1991
运行时间 35 years
类型 other

技术详情

分类 Payload
质量 225.00 kg
干质量 225.00 kg
总质量 225.00 kg
长度 1.60 m
直径 0.80 m
跨度 7.00 m
形状 Cyl + Ant
制造商 NPOPM
平台类型 Strela-3
阶段状态 In Orbit
所有者/国家 UNKSR/SU

Most Searched